Location: Quaker Farms
(41.4276°N, 73.1557°W)
Time: 19:12:23
(UTC+00:00)

S-56A Canister/Altair - Pass Details

Date: 20 June 2021
Orbit: 631 x 2501 km, 38.9° (Epoch: 30 July)

Event Time Altitude Azimuth Distance (km) Brightness Sun altitude
Rises 12:25:12 0° 273° (W) 2,996 10.0 31.9°
Reaches altitude 10° 12:27:19 10° 269° (W) 2,168 9.4 32.3°
Maximum altitude 12:32:09 60° 190° (S) 957 8.4 33.2°
Drops below altitude 10° 12:38:52 10° 112° (ESE) 2,988 11.7 34.5°
Sets 12:42:14 0° 109° (ESE) 4,247 12.2 35.1°
